Regional Weather Roundup
Issued by NWS

Home | Current Version | Previous Version | Text Only | Print | Product List | Glossary Off
Versions: 1 2 3 4 5 6 7 8 9 10 11 12 13 14 15 16 17 18 19 20 21 22 23 24 25 26 27 28 29 30 31 32 33 34 35 36 37 38 39 40 41 42 43 44 45 46 47 48 49 50

000
ASUS43 KDMX 231206
RWRIA

WEATHER ROUNDUP FOR IOWA
NATIONAL WEATHER SERVICE DES MOINES IA
600 AM CST TUE JAN 23 2018

NOTE: "FAIR" INDICATES FEW OR NO CLOUDS BELOW 12,000 FEET WITH NO
SIGNIFICANT WEATHER AND/OR OBSTRUCTIONS TO VISIBILITY.

* - THESE STATIONS ARE NOT NWS STATIONS...THUS NOT UNDER NWS
QUALITY CONTROL.  THEY ALSO DO NOT REPORT WEATHER SUCH
AS PRECIPITATION OR FOG.

IAZ001>003-012>014-020>022-031>034-043>046-231300-
   NORTHWEST IOWA

CITY           SKY/WX    TMP DP  RH WIND       PRES   REMARKS
CARROLL *      CLOUDY    27  23  86 N22       30.00R WCI  12
CHEROKEE *     CLOUDY    23  21  93 N14       30.03R WCI  10
DENISON *      CLOUDY    25  23  93 NW12G20   30.05R WCI  14
LE MARS *      CLOUDY    23  21  93 N16G22    30.05R WCI  10
ORANGE CITY *  CLOUDY    21  21 100 N15G23    30.03R WCI   8
SHELDON *      LGT SNOW  21  21 100 N18       30.00S WCI   6
SIOUX CITY     CLOUDY    23  21  92 NW22      30.07R WCI   8
6HR MIN TEMP:  23; 6HR MAX TEMP:  27; 6HR PCP: TRACE;

SPENCER        FLURRIES  23  19  85 N22G29    30.00R WCI   8
6HR MIN TEMP:  23; 6HR MAX TEMP:  27;

STORM LAKE *   CLOUDY    23  21  93 N18       30.00R WCI   9
$$

IAZ055>058-069>071-079>083-090>094-231300-
   SOUTHWEST IOWA

CITY           SKY/WX    TMP DP  RH WIND       PRES   REMARKS
ATLANTIC *     CLOUDY    28  27  93 NW17G25   30.01R WCI  16
AUDUBON *      CLOUDY    27  23  86 NW14G20   30.01R WCI  15
CLARINDA *     CLOUDY    28  28 100 N16G24    30.05R WCI  17
COUNCIL BLFS * CLOUDY    25  25 100 NW15      30.05R WCI  12
CRESTON *      CLOUDY    28  25  86 NW20      29.99R WCI  15
HARLAN  *      CLOUDY    27  27 100 NW21      30.06R WCI  13
LAMONI         CLOUDY    30  24  78 NW18G29   29.95R WCI  18
6HR MIN TEMP:  30; 6HR MAX TEMP:  30; 6HR PCP: TRACE;

RED OAK *      CLOUDY    28  25  86 NW13G23   30.05R WCI  18
SHENANDOAH *   CLOUDY    28  25  86 NW12G20   30.07R WCI  18
$$

IAZ047>049-059>061-072>074-084-231300-
   CENTRAL IOWA

CITY           SKY/WX    TMP DP  RH WIND       PRES   REMARKS
AMES           CLOUDY    28  26  92 NW20G26   29.94R WCI  15
6HR MIN TEMP:  28; 6HR MAX TEMP:  29; 6HR PCP: TRACE;

ANKENY *       CLOUDY    28  25  86 NW18G30   29.96R WCI  16
BOONE *        CLOUDY    27  23  86 NW17G28   29.94R WCI  14
CHARITON *     CLOUDY    28  25  86 NW18G29   29.92R WCI  16
DES MOINES     CLOUDY    29  24  82 NW18G30   29.95R WCI  16
6HR MIN TEMP:  29; 6HR MAX TEMP:  30; 6HR PCP: TRACE;

GRINNELL*      CLOUDY    28  25  87 NW18G25   29.88R WCI  16
KNOXVILLE *    CLOUDY    30  25  80 NW17G23   29.90R WCI  18
MARSHALLTOWN   CLOUDY    28  23  81 NW20G33   29.89R WCI  15
6HR MIN TEMP:  28; 6HR MAX TEMP:  30;

NEWTON *       CLOUDY    28  25  86 NW22G29   29.90R WCI  15
PELLA *        CLOUDY    30  25  83 NW22      29.91R WCI  16
PERRY *        CLOUDY    28  25  88 NW22G32   29.98R WCI  15
$$

IAZ004>006-015-016-023>025-035-036-231300-
   NORTH CENTRAL IOWA

CITY           SKY/WX    TMP DP  RH WIND       PRES   REMARKS
ALGONA *       CLOUDY    23 N/A N/A NW18      29.96R WCI   9
CLARION *      CLOUDY    25  25 100 NW25G31   29.93R WCI   9
ESTHERVILLE    CLOUDY    21  20  96 NW17      29.97R WCI   7
6HR MIN TEMP:  21; 6HR MAX TEMP:  26;

MASON CITY     CLOUDY    22  17  81 N25G35    29.91R WCI   5
6HR MIN TEMP:  22; 6HR MAX TEMP:  27; 6HR PCP: TRACE;

FOREST CITY *    N/A     23  19  86 NW22G30   29.92R WCI   8
WEBSTER CITY * CLOUDY    27  23  86 NW29      29.93R WCI  11
IOWA FALLS *   CLOUDY    28  24  87 NW25G35   29.91R WCI  13
$$

IAZ007>011-017>019-026>030-037>042-050>054-066-231300-
   NORTHEAST IOWA

CITY           SKY/WX    TMP DP  RH WIND       PRES   REMARKS
CEDAR RAPIDS   CLOUDY    30  23  75 NW18G28   29.80R WCI  18
6HR MIN TEMP:  30; 6HR MAX TEMP:  35; 6HR PCP: TRACE;

CHARLES CITY * CLOUDY    27  27 100 NW20G29   29.86R WCI  13
CLINTON *      CLOUDY    32  29  88 N20G26    29.72R WCI  20
DECORAH *      FLURRIES  25  23  93 NW14G24   29.80R WCI  13
DUBUQUE        CLOUDY    28  23  81 N16       29.73R WCI  16
6HR MIN TEMP:  28; 6HR MAX TEMP:  33; 6HR PCP:  0.03;

MONTICELLO *   CLOUDY    28  25  86 N22G29    29.76R WCI  15
OELWEIN *      CLOUDY    27  27 100 N23G32    29.82R WCI  12
WATERLOO       CLOUDY    27  22  81 NW23      29.86R WCI  12
6HR MIN TEMP:  26; 6HR MAX TEMP:  31; 6HR PCP: TRACE;

$$

IAZ064-065-067-068-078-231300-
   EAST CENTRAL IOWA

CITY           SKY/WX    TMP DP  RH WIND       PRES   REMARKS
DAVENPORT      CLOUDY    33  29  85 NW16G26   29.75R WCI  23
6HR MIN TEMP:  33; 6HR MAX TEMP:  35; 6HR PCP: TRACE;

IOWA CITY      CLOUDY    31  23  72 NW21G28   29.81R WCI  18
6HR MIN TEMP:  31; 6HR MAX TEMP:  37; 6HR PCP: TRACE;

MT. PLEASANT * CLOUDY    32  27  80 NW15G24   29.82R WCI  22
MUSCATINE *    CLOUDY    32  27  80 NW15G23   29.80R WCI  22
QUAD CITIES    CLOUDY    34  30  85 NW18G25   29.73R WCI  23
6HR MIN TEMP:  34; 6HR MAX TEMP:  36; 6HR PCP:  0.01;

$$

IAZ062-063-075>077-085>089-095>099-231300-
   SOUTHEAST IOWA

CITY           SKY/WX    TMP DP  RH WIND       PRES   REMARKS
BURLINGTON     CLOUDY    33  27  78 NW14G28   29.78R WCI  23
6HR MIN TEMP:  33; 6HR MAX TEMP:  36;

FAIRFIELD *    CLOUDY    30  25  80 NW21G28   29.84R WCI  17
FORT MADISON * CLOUDY    32  28  86 NW18G26   29.82R WCI  20
KEOKUK *       CLOUDY    32  28  86 NW21G29   29.82R WCI  20
OSKALOOSA *    CLOUDY    30  26  85 NW17G24   29.87R WCI  18
OTTUMWA        CLOUDY    30  24  78 NW22G29   29.87R WCI  17
6HR MIN TEMP:  30; 6HR MAX TEMP:  35; 6HR PCP: TRACE;

WASHINGTON *   CLOUDY    30  28  93 NW20G30   29.84R WCI  18
$$

ABBREVIATIONS USED IN REMARKS
   TC - TEMPERATURES IN CELSIUS
  WCI - WIND CHILL INDEX
   HX - HEAT INDEX
  VSB - VISIBILITY
$$




USA.gov is the U.S. government's official web portal to all federal, state and local government web resources and services.